Location: Cheyres
(46.8153°N, 6.7877°E)
Time: 00:56:55
(UTC+00:00)

Tiros 1 - Pass Details

Date: 02 June 2022
Orbit: 629 x 663 km, 48.4° (Epoch: 05 July)

Event Time Altitude Azimuth Distance (km) Brightness Sun altitude
Rises 23:09:39 0° 260° (W) 2,910 10.5 -20.7°
Reaches altitude 10° 23:11:58 10° 261° (W) 2,004 9.6 -20.8°
Maximum altitude 23:16:35 81° 349° (N) 643 7.1 -20.8°
Drops below altitude 10° 23:21:14 10° 77° (ENE) 2,017 9.8 -20.9°
Sets 23:23:34 0° 79° (ENE) 2,931 10.6 -20.9°
